Regional Weather Roundup
Issued by NWS Albany, NY

Home | Current Version | Previous Version | Text Only | Print | Product List | Glossary On
Versions: 1 2 3 4 5 6 7 8 9 10 11 12 13 14 15 16 17 18 19 20 21 22 23 24 25 26 27 28 29 30 31 32 33 34 35 36 37 38 39 40 41 42 43 44 45 46 47 48 49 50
516
ASUS41 KALY 050410
RWRALY

NEW YORK STATE HOURLY WEATHER ROUNDUP
NATIONAL WEATHER SERVICE ALBANY NY
1100 PM EST THU FEB 04 2016

NOTE: "FAIR" INDICATES FEW OR NO CLOUDS BELOW 12,000 FEET WITH NO
SIGNIFICANT WEATHER AND/OR NO OBSTRUCTIONS TO VISIBILITY.

NYZ032-033-038>043-046>054-057>066-NYZ062>081-050500-
EAST


CITY           SKY/WX    TMP DP  RH WIND       PRES   REMARKS
ALBANY         CLOUDY    37  25  61 NW12      30.14R WCI  29
GLENS FALLS    CLOUDY    31  23  72 NW3       30.12S
POUGHKEEPSIE   CLOUDY    42  26  53 N5        30.12R
MONTGOMERY     CLOUDY    38  28  67 NE3       30.11R
WHITE PLAINS   CLOUDY    42  26  53 N10       30.06F
ISLIP          LGT RAIN  42  32  67 N10       30.05S
NEW YORK CITY  LGT RAIN  44  33  65 NE12      30.06F
CENTRAL PARK   LGT RAIN  44  28  53 NE12G21   30.08F
$$

NYZ005>009-017-018-044>046-055-056-050500-
CENTRAL


CITY           SKY/WX    TMP DP  RH WIND       PRES   REMARKS
FULTON         CLOUDY    35  25  66 NW5       30.18S WCI  31
SYRACUSE       FLURRIES  33  26  75 W6        30.17S WCI  28
ROME           CLOUDY    31  26  82 CALM      30.18R
ELMIRA         CLOUDY    34  28  79 N8        30.15R WCI  27
BINGHAMTON     CLOUDY    32  27  81 N9        30.11R WCI  24
MONTICELLO     CLOUDY    34  25  69 NW5       30.11R WCI  30
$$

NYZ026>034-041>043-050500-
NORTH


CITY           SKY/WX    TMP DP  RH WIND       PRES   REMARKS
WATERTOWN      CLOUDY    23  20  88 CALM      30.18S
FORT DRUM      NOT AVBL
MASSENA        CLOUDY    32  24  72 W6        30.17S WCI  26
SARANAC LAKE   CLOUDY    30  19  63 W8        30.06S WCI  22
PLATTSBURGH    CLOUDY    33  26  75 CALM      30.13S
$$

NYZ001>004-010>016-019>021-050500-
WEST


CITY           SKY/WX    TMP DP  RH WIND       PRES   REMARKS
NIAGARA FALLS  CLOUDY    33  25  72 W5        30.18R WCI  29
BUFFALO        FLURRIES  33  26  75 W6        30.18R WCI  28
DUNKIRK        LGT SNOW  30  29  96 SW5       30.20R FOG     WCI  25
JAMESTOWN      CLOUDY    28  25  86 W5        30.14R WCI  23
WELLSVILLE     CLOUDY    30  22  72 NW3       30.12R
ROCHESTER      CLOUDY    34  26  72 CALM      30.18S
PENN YAN       CLOUDY    33  26  75 NW7       30.17R WCI  27
$$

             KEY
       WCI = WIND CHILL INDEX
       VSB = VISIBILITY
       HX  = HEAT INDEX
$$




USA.gov is the U.S. government's official web portal to all federal, state and local government web resources and services.